Regional Weather Roundup
Issued by NWS

Home | Current Version | Previous Version | Text Only | Print | Product List | Glossary Off
Versions: 1 2 3 4 5 6 7 8 9 10 11 12 13 14 15 16 17 18 19 20 21 22 23 24 25 26 27 28 29 30 31 32 33 34 35 36 37 38 39 40 41 42 43 44 45 46 47 48 49 50

000
ASUS43 KMKX 051621
RWRWI

WISCONSIN REGIONAL WEATHER ROUNDUP
NATIONAL WEATHER SERVICE MILWAUKEE/SULLIVAN WI
1100 AM CDT THU MAY 05 2016

NOTE: "FAIR" INDICATES FEW OR NO CLOUDS BELOW 12,000 FEET WITH NO
SIGNIFICANT WEATHER AND/OR OBSTRUCTIONS TO VISIBILITY.

WIZ001-002-006>008-014>016-023>028-051700-
NORTHWEST WISCONSIN

CITY           SKY/WX    TMP DP  RH WIND       PRES   REMARKS
SUPERIOR ARPT  MOSUNNY   56  39  53 SW13      29.99S
ASHLAND        SUNNY     61  33  35 SW7       29.99F
HAYWARD        MOSUNNY   59  31  34 SW9       30.01F
SIREN          LGT RAIN  54  37  53 SW7       30.02F
CUMBERLAND     SUNNY     55  27  33 SW9       30.03F
RICE LAKE      SUNNY     59  31  33 W6        30.06S
CHETEK         MOSUNNY   59  33  36 S7        30.04F
LADYSMITH      SUNNY     56  34  43 CALM      30.06F
EAU CLAIRE     SUNNY     54  35  48 SE3       30.07S
MENOMONIE      SUNNY     62  33  33 S7        30.07F
NEW RICHMOND   MOSUNNY   57  33  39 SW10      30.05F
OSCEOLA        MOSUNNY   59  36  42 SW9       30.06F
$$

WIZ003>005-009-010-017-018-051700-
NORTH CENTRAL WISCONSIN

CITY           SKY/WX    TMP DP  RH WIND       PRES   REMARKS
MANITOWISH WTR SUNNY     56  29  35 W9        30.01F
ARBOR VITAE    SUNNY     57  30  35 W7        30.02F
WOODRUFF       SUNNY     57  30  35 W7        30.02F
RHINELANDER    SUNNY     56  28  34 NW7       30.03F
EAGLE RIVER    SUNNY     56  26  30 N7        30.01F
LAND O LAKES   SUNNY     56  26  31 W3        30.02F
PHILLIPS       MOSUNNY   54  32  43 SW7       30.03F
TOMAHAWK       SUNNY     56  28  34 CALM      30.04F
MEDFORD        SUNNY     53  36  52 W5        30.04F
MERRILL        SUNNY     54  34  46 NW7       30.05S
$$

WIZ029-030-035-036-043>047-051700-
CENTRAL WISCONSIN

CITY           SKY/WX    TMP DP  RH WIND       PRES   REMARKS
WAUSAU         SUNNY     55  34  45 W5        30.03F
MOSINEE        SUNNY     54  36  50 NW5       30.05F
MARSHFIELD     SUNNY     57  35  43 W7        30.04F
STEVENS POINT  SUNNY     53  35  49 SW6       30.05F
WAUPACA        SUNNY     56  35  46 CALM      30.05S
WAUTOMA        SUNNY     54  35  48 S3        30.06S
WISC RAPIDS    SUNNY     56  33  42 NW7       30.06F
CAMP DOUGLAS   MOSUNNY   55  39  54 N7        30.06F
$$

WIZ011>013-019>022-031-037>040-048>050-051700-
NORTHEAST WISCONSIN

CITY           SKY/WX    TMP DP  RH WIND       PRES   REMARKS
ANTIGO         SUNNY     53  33  47 CALM      30.03F
SHAWANO        SUNNY     55  36  49 SE3       30.05S
OCONTO         SUNNY     51  36  57 N7        30.04S
STURGEON BAY   SUNNY     46  36  66 NW7       30.06S
GREEN BAY      SUNNY     53  37  54 E5        30.04F
MANITOWOC      SUNNY     52  38  58 VRB6G17   30.04S
APPLETON       SUNNY     48  34  57 CALM      30.04S
CLINTONVILLE   SUNNY     52  34  50 CALM      30.05S
OSHKOSH        SUNNY     52  37  56 MISG      30.04F
$$

WIZ032>034-041-042-053>061-051700-
SOUTHWEST WISCONSIN

CITY           SKY/WX    TMP DP  RH WIND       PRES   REMARKS
LA CROSSE      SUNNY     56  35  45 VRB5      30.07F
SPARTA         SUNNY     56  33  43 SW3       30.07F
VIROQUA        SUNNY     54  35  49 N5        30.07F
BOSCOBEL       SUNNY     58  36  43 W3        30.07F
PRAIRIE DU CHI SUNNY     55  33  43 N5        30.07F
PLATTEVILLE    SUNNY     54  39  57 N7        30.07S
$$

WIZ056-057-062-063-064-067-068-051700-
SOUTH CENTRAL WISCONSIN

CITY           SKY/WX    TMP DP  RH WIND       PRES   REMARKS
REEDSBURG      SUNNY     53  37  53 CALM      30.06S
BARABOO/DELLS  SUNNY     54  33  45 NE3       30.06S
LONE ROCK        N/A     56  38  50 NW6       30.07F
MINERAL POINT  SUNNY     55  37  50 N3        30.06S
MADISON        SUNNY     53  36  52 N3        30.05S
MIDDLETON      SUNNY     54  37  53 N5        30.06S
WATERTOWN      SUNNY     53  39  59 N9        30.04S
MONROE         SUNNY     52  37  58 N7        30.05S
JANESVILLE     SUNNY     55  37  50 N8        30.04S
$$

WIZ051-052-058>065-066-070>072-051700-
SOUTHEAST WISCONSIN

CITY           SKY/WX    TMP DP  RH WIND       PRES   REMARKS
MILWAUKEE      SUNNY     50  39  66 N8        30.04R
WAUKESHA       SUNNY     54  37  54 N6        30.04S
MILWAUKEE/TIMM SUNNY     54  36  50 E6        30.04R
RACINE         SUNNY     49  38  65 N17       30.05R
BURLINGTON     SUNNY     53  38  56 N8        30.02F
KENOSHA        SUNNY     53  40  61 N12       30.03R
FOND DU LAC    SUNNY     52  39  61 NE8       30.05S
SHEBOYGAN      SUNNY     53  39  59 N9        30.04R
WEST BEND      SUNNY     54  36  50 W5        30.03S
JUNEAU         SUNNY     51  37  59 NW7       30.06R
$$

LSZ147-162-051700-
LAKE SUPERIOR

STATION/POSITION TIME  TEMP    WIND        PRES    WAVE
                       AIR SEA DIR/SP/G            HT/PER
                 (UTC) (F)     (DEG/KT/KT) (MB)    (FT/S)
W MID LAKE BUOY  1550   38 37  210/ 10/ 10 1016.0F   0
DEVILS ISLAND    1600   46     240/  8/ 11 1015.6F
SAXON HARBOR     1500   58     220/  4/ 12 1015.6F
$$

LMZ867-665-643>646-051700-
LAKE MICHIGAN

STATION/POSITION TIME  TEMP    WIND        PRES    WAVE
                       AIR SEA DIR/SP/G            HT/PER
                 (UTC) (F)     (DEG/KT/KT) (MB)    (FT/S)
CHAMBERS ISLAND  1500   45      10/  3/  3 1017.6R
N MID LAKE BUOY  1550   39 39  280/  6/  6 1016.9S   1/ 3
NORTHPORT PIER   1500   40     310/  8/  9 1017.3S
ALGOMA LAKESHORE 1515           90/ 10/ 11   N/A
KEWAUNEE LAKESHO 1600   47      50/  4/  6 1016.5R
SHEBOYGAN LAKESH 1600   43      20/ 10/ 11 1018.1R
PORT WASHINGTON  1540   47      50/ 10/ 14 1017.9R
S MID LAKE BUOY  1550   40 40   10/ 16/ 17 1015.9R   4/ 6
KENOSHA   LAKESH 1600   45      10/ 12/ 15 1016.9R
$$

TC  - TEMPERATURE IN CELSIUS
VSB - VISIBILITY IN STATUTE MILES
WCI - WIND CHILL INDEX
HX  - HEAT INDEX





USA.gov is the U.S. government's official web portal to all federal, state and local government web resources and services.